Simultaneous Nadir Overpasses (SNOs) Predictions

Prediction of SNOs between GOES-15 and METOP-B Satellite Orbit:

Table of predicted SNOs for the next 14.0 days since TLE Epoch: 10/18/2019
Index Date Time (GOES-15) GOES-15 Lat,Lon METOP-B Lat,Lon Distance(km) Time Diff (sec)
1 10/20/2019 06:08:27 0.29,-128.20 0.04,-129.41 137.93 80
2 10/21/2019 05:45:08 0.28,-128.22 1.11,-124.41 433.54 80
3 10/22/2019 18:04:01 -0.28,-128.25 -0.12,-128.98 82.21 80
4 10/23/2019 17:46:03 -0.28,-128.28 -1.25,-123.98 489.32 80
5 10/25/2019 06:05:04 0.28,-128.30 0.23,-128.58 31.48 80
6 10/27/2019 18:03:18 -0.28,-128.35 -0.31,-128.14 22.80 80
7 10/29/2019 06:22:19 0.29,-128.37 -0.70,-132.74 497.66 80
8 10/30/2019 05:59:00 0.28,-128.39 0.43,-127.75 72.82 80
9 10/31/2019 18:17:54 -0.28,-128.40 0.57,-132.31 445.50 80
10 11/01/2019 17:59:54 -0.27,-128.41 -0.49,-127.31 125.17 80




NCC Satellite Simultaneous Nadir Overpasses (SNOs) Prediction Service
